This is the latest recevied weather packets stored in our database for station/object XQ6AK-15. If no packets are shown the sender has not sent any weather packets the latest 10 day(s).
| Time | Temp. | Humidity | Pressure | Rain* | Wind** | Luminosity | Snow |
|---|---|---|---|---|---|---|---|
| 1787785710 | 8.89° C | 95% | 1001.6 hPa | 0 mm | - | 0 W/m² | - |
| 1787785405 | 9.44° C | 94% | 1001.5 hPa | 0 mm | - | 0 W/m² | - |
| 1787785104 | 9.44° C | 95% | 1001.4 hPa | 0 mm | - | 0 W/m² | - |
| 1787784800 | 9.44° C | 95% | 1001.3 hPa | 0 mm | - | 0 W/m² | - |
| 1787784498 | 9.44° C | 96% | 1001.1 hPa | 0 mm | - | 0 W/m² | - |
| 1787784193 | 9.44° C | 95% | 1001.1 hPa | 0 mm | - | 0 W/m² | - |
| 1787783889 | 10° C | 95% | 1001 hPa | 0 mm | - | 0 W/m² | - |
| 1787783585 | 10° C | 95% | 1000.8 hPa | 0 mm | - | 0 W/m² | - |
| 1787783278 | 10° C | 95% | 1000.9 hPa | 0 mm | - | 0 W/m² | - |
| 1787782974 | 10° C | 96% | 1000.7 hPa | 0 mm | - | 1 W/m² | - |
| 1787782673 | 10° C | 96% | 1000.5 hPa | 0 mm | - | 3 W/m² | - |
| 1787782369 | 10° C | 97% | 1000.5 hPa | 0 mm | - | 8 W/m² | - |
| 1787782064 | 10° C | 96% | 1000.3 hPa | 0 mm | - | 11 W/m² | - |
| 1787781760 | 10° C | 96% | 1000.3 hPa | 0 mm | - | 18 W/m² | - |
| 1787781457 | 10° C | 97% | 1000.1 hPa | 0 mm | - | 32 W/m² | - |
| 1787781152 | 10° C | 97% | 999.9 hPa | 0 mm | - | 37 W/m² | - |
| 1787780850 | 10° C | 97% | 999.8 hPa | 0 mm | - | 22 W/m² | - |
| 1787780545 | 10° C | 97% | 1000 hPa | 0 mm | - | 23 W/m² | - |
| 1787780240 | 10° C | 96% | 1000 hPa | 0 mm | - | 15 W/m² | - |
| 1787779936 | 10° C | 96% | 999.9 hPa | 0 mm | - | 11 W/m² | - |
| 1787779635 | 10° C | 96% | 999.8 hPa | 0 mm | - | 9 W/m² | - |
| 1787779329 | 10° C | 96% | 999.4 hPa | 0 mm | - | 10 W/m² | - |
| 1787779024 | 10.56° C | 95% | 999.2 hPa | 0 mm | - | 15 W/m² | - |
| 1787778720 | 10.56° C | 93% | 999.1 hPa | 0 mm | - | 33 W/m² | - |
| 1787778416 | 10.56° C | 92% | 999.1 hPa | 0 mm | - | 65 W/m² | - |
* Rain latest hour (hover to see other rain measurements)
** Current wind speed in m/s (hover to see current wind gust speed)